• In Hungary
  • List of Countries
  • For 7 days
  • Water Temperature
  • Satellite Maps
  • Weather Map
  • News
  • Weather Widgets
  • user-avatar
    Login

    Hourly Weather Molotino

    Today, 19 April, Thursday

    Time Temperature Precipitation Wind Pressure Humidity
    00:00 +6°C° 0.2 mm 2 mps 741 mmHg 95%
    01:00 +6°C° 0.2 mm 2 mps 741 mmHg 96%
    02:00 +6°C° 0 mm 2 mps 741 mmHg 96%
    03:00 +5°C° 0.4 mm 3 mps 741 mmHg 95%
    04:00 +5°C° 0.4 mm 3 mps 741 mmHg 95%
    05:00 +5°C° 0.4 mm 3 mps 741 mmHg 95%
    06:00 +6°C° 0.3 mm 4 mps 741 mmHg 93%
    07:00 +6°C° 0.3 mm 4 mps 741 mmHg 90%
    08:00 +7°C° 0.3 mm 4 mps 741 mmHg 88%
    09:00 +8°C° 0.1 mm 4 mps 741 mmHg 84%
    10:00 +9°C° 0.1 mm 5 mps 741 mmHg 79%
    11:00 +10°C° 0.1 mm 5 mps 742 mmHg 75%
    12:00 +10°C° 0.1 mm 5 mps 742 mmHg 75%
    13:00 +10°C° 0.1 mm 5 mps 742 mmHg 76%
    14:00 +10°C° 0.1 mm 6 mps 742 mmHg 76%
    15:00 +10°C° 0.1 mm 5 mps 742 mmHg 75%
    16:00 +10°C° 0.1 mm 5 mps 742 mmHg 75%
    17:00 +10°C° 0.1 mm 5 mps 743 mmHg 74%
    18:00 +10°C° 0 mm 4 mps 743 mmHg 76%
    19:00 +8°C° 0 mm 4 mps 743 mmHg 77%
    20:00 +7°C° 0 mm 4 mps 744 mmHg 78%
    21:00 +6°C° 0 mm 4 mps 744 mmHg 80%
    22:00 +6°C° 0 mm 4 mps 745 mmHg 82%
    23:00 +5°C° 0 mm 4 mps 745 mmHg 85%

    Tomorrow, 20 April, Friday

    Time Temperature Precipitation Wind Pressure Humidity
    00:00 +5°C° 0 mm 3 mps 745 mmHg 87%
    01:00 +4°C° 0 mm 3 mps 746 mmHg 90%
    02:00 +4°C° 0 mm 3 mps 746 mmHg 92%
    03:00 +4°C° 0 mm 3 mps 746 mmHg 93%
    04:00 +4°C° 0 mm 3 mps 747 mmHg 94%
    05:00 +4°C° 0 mm 3 mps 747 mmHg 95%
    06:00 +4°C° 0.1 mm 3 mps 747 mmHg 92%
    07:00 +5°C° 0.1 mm 3 mps 748 mmHg 90%
    08:00 +5°C° 0.1 mm 3 mps 748 mmHg 87%
    09:00 +7°C° 0 mm 3 mps 748 mmHg 80%
    10:00 +8°C° 0 mm 3 mps 748 mmHg 74%
    11:00 +9°C° 0 mm 3 mps 748 mmHg 67%
    12:00 +10°C° 0 mm 3 mps 748 mmHg 64%
    13:00 +10°C° 0 mm 3 mps 748 mmHg 62%
    14:00 +11°C° 0 mm 3 mps 748 mmHg 60%
    15:00 +12°C° 0 mm 2 mps 748 mmHg 61%
    16:00 +12°C° 0 mm 2 mps 747 mmHg 62%
    17:00 +12°C° 0 mm 2 mps 747 mmHg 63%
    18:00 +9°C° 0 mm 2 mps 747 mmHg 69%
    19:00 +8°C° 0 mm 2 mps 746 mmHg 75%
    20:00 +7°C° 0 mm 2 mps 746 mmHg 81%
    21:00 +7°C° 0 mm 2 mps 745 mmHg 82%
    22:00 +7°C° 0 mm 3 mps 744 mmHg 82%
    23:00 +7°C° 0 mm 3 mps 743 mmHg 82%

    Day after tomorrow, 21 April, Saturday

    Time Temperature Precipitation Wind Pressure Humidity
    00:00 +6°C° 0 mm 4 mps 742 mmHg 81%
    01:00 +6°C° 0 mm 5 mps 741 mmHg 80%
    02:00 +7°C° 0 mm 5 mps 740 mmHg 80%
    03:00 +7°C° 0.1 mm 5 mps 739 mmHg 82%
    04:00 +7°C° 0.1 mm 5 mps 738 mmHg 84%
    05:00 +7°C° 0.1 mm 5 mps 737 mmHg 86%
    06:00 +8°C° 0.1 mm 5 mps 736 mmHg 85%
    07:00 +8°C° 0.1 mm 6 mps 735 mmHg 84%
    08:00 +9°C° 0.1 mm 6 mps 734 mmHg 83%
    09:00 +10°C° 0.4 mm 6 mps 733 mmHg 82%
    10:00 +10°C° 0.4 mm 7 mps 732 mmHg 80%
    11:00 +11°C° 0.4 mm 7 mps 731 mmHg 79%
    12:00 +11°C° 0.4 mm 7 mps 730 mmHg 77%
    13:00 +11°C° 0.4 mm 8 mps 730 mmHg 75%
    14:00 +11°C° 0.4 mm 8 mps 729 mmHg 73%
    15:00 +10°C° 0.1 mm 8 mps 730 mmHg 71%
    16:00 +9°C° 0.1 mm 8 mps 730 mmHg 69%
    17:00 +6°C° 0.1 mm 8 mps 730 mmHg 67%
    18:00 +6°C° 0.1 mm 8 mps 730 mmHg 69%
    19:00 +5°C° 0.1 mm 8 mps 731 mmHg 70%
    20:00 +5°C° 0.1 mm 8 mps 731 mmHg 71%
    21:00 +4°C° 0 mm 7 mps 732 mmHg 73%
    22:00 +4°C° 0 mm 7 mps 732 mmHg 74%
    23:00 +3°C° 0 mm 7 mps 732 mmHg 75%

    22 April, Sunday

    Time Temperature Precipitation Wind Pressure Humidity
    00:00 +3°C° 0 mm 6 mps 733 mmHg 76%
    01:00 +2°C° 0 mm 6 mps 733 mmHg 77%
    02:00 +2°C° 0 mm 6 mps 734 mmHg 78%
    03:00 +2°C° 0.1 mm 5 mps 735 mmHg 78%
    04:00 +1°C° 0.1 mm 5 mps 735 mmHg 78%
    05:00 +1°C° 0.1 mm 5 mps 735 mmHg 79%
    06:00 +1°C° 0 mm 5 mps 736 mmHg 75%
    07:00 +2°C° 0 mm 5 mps 736 mmHg 72%
    08:00 +2°C° 0 mm 5 mps 736 mmHg 69%
    09:00 +4°C° 0 mm 4 mps 737 mmHg 66%
    10:00 +4°C° 0 mm 4 mps 737 mmHg 63%
    11:00 +5°C° 0 mm 4 mps 738 mmHg 60%
    12:00 +5°C° 0 mm 4 mps 738 mmHg 58%
    13:00 +5°C° 0 mm 4 mps 738 mmHg 57%
    14:00 +6°C° 0 mm 4 mps 738 mmHg 55%
    15:00 +5°C° 0 mm 4 mps 738 mmHg 55%
    16:00 +5°C° 0 mm 4 mps 739 mmHg 56%
    17:00 +5°C° 0 mm 4 mps 739 mmHg 56%
    18:00 +3°C° 0 mm 3 mps 739 mmHg 61%
    19:00 +3°C° 0 mm 2 mps 740 mmHg 66%
    20:00 +2°C° 0 mm 2 mps 740 mmHg 71%
    21:00 +1°C° 0 mm 2 mps 741 mmHg 73%
    22:00 +2°C° 0 mm 1 mps 741 mmHg 75%
    23:00 +1°C° 0 mm 1 mps 741 mmHg 76%

    23 April, Monday

    Time Temperature Precipitation Wind Pressure Humidity
    00:00 +1°C° 0 mm 1 mps 742 mmHg 77%
    01:00 0°C° 0 mm 1 mps 742 mmHg 78%
    02:00 0°C° 0 mm 1 mps 742 mmHg 79%
    03:00 0°C° 0 mm 1 mps 742 mmHg 78%
    04:00 0°C° 0 mm 1 mps 743 mmHg 78%
    05:00 0°C° 0 mm 1 mps 743 mmHg 77%
    06:00 -1°C° 0 mm 2 mps 743 mmHg 67%
    07:00 +2°C° 0 mm 2 mps 743 mmHg 57%
    08:00 +3°C° 0 mm 2 mps 744 mmHg 46%
    09:00 +4°C° 0 mm 2 mps 744 mmHg 43%
    10:00 +5°C° 0 mm 2 mps 744 mmHg 40%
    11:00 +6°C° 0 mm 2 mps 744 mmHg 37%
    12:00 +7°C° 0 mm 2 mps 744 mmHg 36%
    13:00 +7°C° 0 mm 2 mps 744 mmHg 35%
    14:00 +8°C° 0 mm 2 mps 744 mmHg 35%
    15:00 +7°C° 0 mm 2 mps 743 mmHg 36%
    16:00 +8°C° 0 mm 1 mps 743 mmHg 37%
    17:00 +8°C° 0 mm 1 mps 743 mmHg 38%
    18:00 +6°C° 0 mm 1 mps 743 mmHg 45%
    19:00 +5°C° 0 mm 1 mps 743 mmHg 51%
    20:00 +3°C° 0 mm 1 mps 744 mmHg 57%
    21:00 +2°C° 0 mm 1 mps 744 mmHg 60%
    22:00 +2°C° 0 mm 1 mps 744 mmHg 62%
    23:00 -1°C° 0 mm 2 mps 744 mmHg 65%

    24 April, Tuesday

    Time Temperature Precipitation Wind Pressure Humidity
    00:00 -1°C° 0 mm 2 mps 743 mmHg 66%
    01:00 -1°C° 0 mm 2 mps 743 mmHg 67%
    02:00 -2°C° 0 mm 2 mps 743 mmHg 68%
    03:00 -1°C° 0 mm 2 mps 743 mmHg 67%
    04:00 -1°C° 0 mm 2 mps 743 mmHg 67%
    05:00 -1°C° 0 mm 2 mps 743 mmHg 67%
    06:00 +2°C° 0 mm 2 mps 743 mmHg 61%
    07:00 +3°C° 0 mm 3 mps 742 mmHg 55%
    08:00 +5°C° 0 mm 3 mps 742 mmHg 49%
    09:00 +7°C° 0 mm 3 mps 742 mmHg 46%
    10:00 +8°C° 0 mm 4 mps 742 mmHg 43%
    11:00 +10°C° 0 mm 4 mps 741 mmHg 40%
    12:00 +11°C° 0 mm 4 mps 741 mmHg 40%
    13:00 +11°C° 0 mm 4 mps 740 mmHg 40%
    14:00 +11°C° 0 mm 4 mps 740 mmHg 41%
    15:00 +11°C° 0 mm 4 mps 740 mmHg 45%
    16:00 +10°C° 0 mm 3 mps 739 mmHg 49%
    17:00 +10°C° 0 mm 3 mps 739 mmHg 53%
    18:00 +9°C° 0.1 mm 3 mps 739 mmHg 57%
    19:00 +8°C° 0.1 mm 3 mps 738 mmHg 62%
    20:00 +7°C° 0.1 mm 3 mps 738 mmHg 66%
    21:00 +5°C° 0.4 mm 3 mps 738 mmHg 68%
    22:00 +5°C° 0.4 mm 3 mps 738 mmHg 71%
    23:00 +4°C° 0.4 mm 3 mps 737 mmHg 73%
    Show more